User: anonymous
Location: Albany
(35.0000°S, 118.0000°E)
Time: 22:11:50
(UTC-04:00)
Language:

Cosmos 1484 - Orbit

View from above orbital plane
View from above orbital plane
View from above satellite
View from above satellite

Ground track
Ground track

The orbit data is extracted from the following two-line orbital elements,

1 14207U 83075A   13028.01864212  .17144267  28817-5  11508-3 0  6454
2 14207 097.5736 255.6458 0007149 229.5798 131.1414 16.53734211 67024
Epoch (UTC): 28 January 2013 00:26:50
Eccentricity: 0.0007149
inclination: 97.5736°
perigee height: 125 km
apogee height: 134 km
right ascension of ascending node: 255.6458°
argument of perigee: 229.5798°
revolutions per day: 16.53734211
mean anomaly at epoch: 131.1414°
orbit number at epoch: 6702

The dashed part of the orbit path shows where the satellite is in the earth's shadow,  

DLR